Location: Gloden
(48.4833°N, 15.3167°E)
Time: 02:47:07
(UTC+00:00)

Cosmos 839 Rocket - Pass Details

Date: 15 December 2019
Orbit: 967 x 2085 km, 65.9° (Epoch: 28 January)

Event Time Altitude Azimuth Distance (km) Brightness Sun altitude
Exits shadow 05:43:54 - 323° (NW) 3,046 6.1 -9.4°
Reaches altitude 10° 05:44:32 10° 323° (NW) 2,813 5.9 -9.3°
Maximum altitude 05:51:04 88° 52° (NE) 1,145 4.4 -8.3°
Drops below altitude 10° 05:59:01 10° 145° (SE) 3,389 8.0 -7.1°
Sets 06:02:10 0° 145° (SE) 4,522 8.7 -6.7°
